, MO

(GMT )
Kansas City

Weather History for KMKC - September, 2013

Change the Weather History Date:

Sunday, September 8, 2013

  Actual Average Record
Temperature  
Mean Temperature 91 °F -  
Max Temperature 102 °F 82 °F 102 °F (2013)
Min Temperature 80 °F 62 °F 53 °F (2008)
Cooling Degree Days 26    
Growing Degree Days 41 (Base 50)    
Moisture  
Dew Point 65 °F    
Average Humidity 45    
Maximum Humidity 62    
Minimum Humidity 28    
Precipitation  
Precipitation 0.00 in - - ()
Sea Level Pressure  
Sea Level Pressure 29.84 in    
Wind  
Wind Speed 6 mph (SW)    
Max Wind Speed 13 mph    
Max Gust Speed 17 mph    
Visibility 10 miles    
Events      
Averages and records for this station are not official NWS values.
T = Trace of Precipitation, MM = Missing Value Source: NWS Daily Summary

Daily Weather History Graph

Daily Weather History Graph

Search for Another Location

Airport or City:

Trip Planner

Search our weather history database for the weather conditions in past years. The results will help you decide how hot, cold, wet, or windy it might be!

Date:

Astronomy

Sep. 08, 2013 Rise Set
Actual Time 6:53 AM CDT 7:37 PM CDT
Civil Twilight 6:26 AM CDT 8:04 PM CDT
Nautical Twilight 5:54 AM CDT 8:36 PM CDT
Astronomical Twilight 5:21 AM CDT 9:09 PM CDT
Moon 10:10 AM CDT (9/8) 9:15 PM CDT (9/8)
Length of Visible Light 13h 37m
Length of Day
12h 43m
Waxing Crescent, 11% of the Moon is Illuminated
Sep 8
Waxing Crescent
Sep 12
First Quarter
Sep 19
Full
Sep 26
Last Quarter
Oct 4
New

Hourly Weather History & Observations

Time (CDT) Temp. Heat Index Dew Point Humidity Pressure Visibility Wind Dir Wind Speed Gust Speed Precip Events Conditions
12:54 AM 84.9 °F 87.1 °F 66.0 °F 53% 29.87 in 10.0 mi SSW 5.8 mph - N/A   Clear
1:54 AM 84.0 °F 86.3 °F 66.0 °F 55% 29.87 in 10.0 mi SSW 4.6 mph - N/A   Clear
2:54 AM 86.0 °F 87.3 °F 64.0 °F 48% 29.87 in 10.0 mi SW 5.8 mph - N/A   Clear
3:54 AM 84.0 °F 85.4 °F 64.0 °F 51% 29.87 in 10.0 mi WSW 3.5 mph - N/A   Clear
4:54 AM 82.0 °F 83.8 °F 64.9 °F 56% 29.87 in 10.0 mi WSW 3.5 mph - N/A   Clear
5:54 AM 81.0 °F 82.5 °F 64.0 °F 56% 29.87 in 10.0 mi WSW 3.5 mph - N/A   Clear
6:54 AM 80.1 °F 81.7 °F 64.0 °F 58% 29.88 in 10.0 mi WSW 4.6 mph - N/A   Clear
7:54 AM 80.1 °F 82.1 °F 66.0 °F 62% 29.88 in 10.0 mi Calm Calm - N/A   Clear
8:54 AM 84.0 °F 86.3 °F 66.0 °F 55% 29.87 in 10.0 mi WSW 6.9 mph - N/A   Clear
9:54 AM 87.1 °F 89.2 °F 66.0 °F 49% 29.87 in 10.0 mi West 5.8 mph - N/A   Clear
10:54 AM 90.0 °F 92.8 °F 66.9 °F 46% 29.87 in 10.0 mi WSW 4.6 mph - N/A   Clear
11:54 AM 93.9 °F 97.0 °F 66.0 °F 40% 29.86 in 10.0 mi Variable 4.6 mph - N/A   Clear
12:54 PM 98.1 °F 101.8 °F 66.0 °F 35% 29.84 in 10.0 mi WSW 5.8 mph - N/A   Clear
1:54 PM 100.0 °F 103.0 °F 64.0 °F 31% 29.82 in 10.0 mi WSW 6.9 mph - N/A   Clear
2:54 PM 100.9 °F 104.0 °F 64.0 °F 30% 29.80 in 10.0 mi West 11.5 mph 17.3 mph N/A   Partly Cloudy
3:54 PM 102.0 °F 104.6 °F 63.0 °F 28% 29.80 in 10.0 mi SW 8.1 mph - N/A   Scattered Clouds
4:54 PM 100.9 °F 104.6 °F 64.9 °F 31% 29.78 in 10.0 mi WSW 8.1 mph - N/A   Scattered Clouds
5:54 PM 99.0 °F 101.7 °F 64.0 °F 32% 29.77 in 10.0 mi SW 12.7 mph - N/A   Clear
6:54 PM 96.1 °F 98.8 °F 64.9 °F 36% 29.77 in 10.0 mi SSW 12.7 mph - N/A   Clear
7:54 PM 93.0 °F 95.0 °F 64.9 °F 39% 29.78 in 10.0 mi SSW 12.7 mph - N/A   Clear
8:54 PM 91.0 °F 93.0 °F 64.9 °F 42% 29.80 in 10.0 mi SSW 9.2 mph - N/A   Clear
9:54 PM 89.1 °F 91.3 °F 66.0 °F 46% 29.81 in 10.0 mi SSW 10.4 mph - N/A   Clear
10:54 PM 87.1 °F 89.2 °F 66.0 °F 49% 29.82 in 10.0 mi SSW 5.8 mph - N/A   Clear
11:54 PM 86.0 °F 87.6 °F 64.9 °F 49% 29.83 in 10.0 mi SSW 6.9 mph - N/A   Clear